Regional Weather Roundup
Issued by NWS

Home | Current Version | Previous Version | Graphics & Text | Print | Product List | Glossary On
Versions: 1 2 3 4 5 6 7 8 9 10 11 12 13 14 15 16 17 18 19 20 21 22 23 24 25 26 27 28 29 30 31 32 33 34 35 36 37 38 39 40 41 42 43 44 45 46 47 48 49 50
000
ASUS43 KMKX 261700
RWRWI

WISCONSIN REGIONAL WEATHER ROUNDUP
NATIONAL WEATHER SERVICE MILWAUKEE/SULLIVAN WI
1200 PM CDT TUE JUL 26 2016

NOTE: "FAIR" INDICATES FEW OR NO CLOUDS BELOW 12,000 FEET WITH NO
SIGNIFICANT WEATHER AND/OR OBSTRUCTIONS TO VISIBILITY.

WIZ001-002-006>008-014>016-023>028-261800-
NORTHWEST WISCONSIN

CITY           SKY/WX    TMP DP  RH WIND       PRES   REMARKS
SUPERIOR ARPT  CLOUDY    83  69  62 SW8       29.94F HX  86
ASHLAND        SUNNY     85  66  53 SW9       29.95F HX  87
HAYWARD        SUNNY     83  66  56 W8        30.01F HX  85
SIREN          SUNNY     82  66  57 SW13      30.01F HX  85
CUMBERLAND     MOSUNNY   81  64  57 SW14      30.04F HX  82
RICE LAKE      SUNNY     82  67  61 SW10      30.05F HX  84
CHETEK         MOSUNNY   82  69  64 SW8       30.04F HX  86
LADYSMITH      SUNNY     82  68  62 S10G17    30.05F HX  84
EAU CLAIRE     NOT AVBL
MENOMONIE      PTSUNNY   86  68  53 SW10      30.05F HX  89
NEW RICHMOND   MOSUNNY   84  65  53 SW13      30.04F HX  86
OSCEOLA        MOSUNNY   84  66  55 SW13      30.05F HX  86
$$

WIZ003>005-009-010-017-018-261800-
NORTH CENTRAL WISCONSIN

CITY           SKY/WX    TMP DP  RH WIND       PRES   REMARKS
MANITOWISH WTR MOSUNNY   82  67  60 SW14      30.03F HX  84
ARBOR VITAE    SUNNY     82  66  57 SW10      30.04F HX  85
WOODRUFF       SUNNY     82  66  57 SW10      30.04F HX  85
RHINELANDER    SUNNY     84  65  52 W10       30.06F HX  86
EAGLE RIVER    MOSUNNY   80  64  56 W8        30.04F HX  82
LAND O LAKES   MOSUNNY   83  64  53 SW10      30.04F HX  84
PHILLIPS       SUNNY     82  68  62 SW9       30.03F HX  85
TOMAHAWK       SUNNY     82  64  55 SW7       30.06F HX  83
MEDFORD        SUNNY     79  68  67 SW8       30.07F HX  82
MERRILL        SUNNY     83  67  58 SW9       30.06F HX  85
$$

WIZ029-030-035-036-043>047-261800-
CENTRAL WISCONSIN

CITY           SKY/WX    TMP DP  RH WIND       PRES   REMARKS
WAUSAU         SUNNY     84  65  52 W8        30.04F HX  86
MOSINEE        SUNNY     82  66  57 SW9       30.08S HX  85
MARSHFIELD     MOSUNNY   84  67  56 SW10      30.08S HX  86
STEVENS POINT  SUNNY     81  63  54 W7        30.07F HX  82
WAUPACA        MOSUNNY   85  62  46 CALM      30.06S HX  85
WAUTOMA        MOSUNNY   85  65  51 SW8       30.07S HX  86
WISC RAPIDS    MOSUNNY   85  63  47 SW6       30.08F HX  86
CAMP DOUGLAS   NOT AVBL
$$

WIZ011>013-019>022-031-037>040-048>050-261800-
NORTHEAST WISCONSIN

CITY           SKY/WX    TMP DP  RH WIND       PRES   REMARKS
ANTIGO         SUNNY     82  66  59 CALM      30.07F HX  84
SHAWANO        SUNNY     85  67  53 SW3       30.04F HX  88
OCONTO         SUNNY     83  68  59 W9        30.02S HX  86
STURGEON BAY   SUNNY     82  67  60 VRB6      30.04S HX  84
GREEN BAY      SUNNY     83  69  62 W6        30.04F HX  86
MANITOWOC      NOT AVBL
APPLETON       PTSUNNY   82  63  51 SW8       30.06R HX  83
CLINTONVILLE   MOSUNNY   82  63  51 W7        30.05S HX  83
OSHKOSH        PTSUNNY   83  64  52 VRB5      30.06S HX  84
$$

WIZ032>034-041-042-053>061-261800-
SOUTHWEST WISCONSIN

CITY           SKY/WX    TMP DP  RH WIND       PRES   REMARKS
LA CROSSE      MOSUNNY   85  67  54 W7G17     30.07S HX  87
SPARTA         SUNNY     83  65  53 NW3       30.09S HX  85
VIROQUA        MOSUNNY   82  64  54 W5        30.11S HX  83
BOSCOBEL       MOSUNNY   85  62  46 W3        30.08F HX  85
PRAIRIE DU CHI SUNNY     82  60  47 CALM      30.08F HX  83
PLATTEVILLE    MOSUNNY   81  64  57 CALM      30.10F HX  82
$$

WIZ056-057-062-063-064-067-068-261800-
SOUTH CENTRAL WISCONSIN

CITY           SKY/WX    TMP DP  RH WIND       PRES   REMARKS
REEDSBURG      SUNNY     82  65  58 S3        30.08S HX  83
BARABOO/DELLS  MOSUNNY   81  63  53 W3        30.09S HX  82
LONE ROCK      NOT AVBL
MINERAL POINT  PTSUNNY   81  61  50 CALM      30.10F HX  81
MADISON        MOSUNNY   82  63  52 SW8       30.07F HX  83
MIDDLETON      SUNNY     83  61  47 N3        30.09S HX  83
WATERTOWN      SUNNY     82  64  53 SE5       30.07S HX  83
MONROE         MOSUNNY   81  61  50 CALM      30.10S HX  81
JANESVILLE     NOT AVBL
$$

WIZ051-052-058>065-066-070>072-261800-
SOUTHEAST WISCONSIN

CITY           SKY/WX    TMP DP  RH WIND       PRES   REMARKS
MILWAUKEE      MOSUNNY   83  60  45 SE7       30.06F HX  83
WAUKESHA       MOSUNNY   81  57  44 NW3       30.08F HX  81
MILWAUKEE/TIMM NOT AVBL
RACINE         SUNNY     83  60  45 SE5       30.08F HX  83
BURLINGTON     MOSUNNY   83  60  46 E5        30.08S HX  83
KENOSHA        SUNNY     83  62  49 VRB3      30.07F HX  84
FOND DU LAC    SUNNY     85  63  47 W7        30.07S HX  86
SHEBOYGAN      PTSUNNY   83  60  45 VRB3      30.06S HX  83
WEST BEND      SUNNY     82  55  39 S5        30.07S HX  82
JUNEAU         SUNNY     80  63  56 W5        30.09S HX  81
$$

LSZ147-162-261800-
LAKE SUPERIOR

STATION/POSITION TIME  TEMP    WIND        PRES    WAVE
                       AIR SEA DIR/SP/G            HT/PER
                 (UTC) (F)     (DEG/KT/KT) (MB)    (FT/S)
W MID LAKE BUOY  1550   64 60  220/  6/  6 1013.7F   1
DEVILS ISLAND    1600   73     240/ 10/ 13 1013.8F
SAXON HARBOR     1600   83     200/  8/ 12 1014.2
$$

LMZ867-665-643>646-261800-
LAKE MICHIGAN

STATION/POSITION TIME  TEMP    WIND        PRES    WAVE
                       AIR SEA DIR/SP/G            HT/PER
                 (UTC) (F)     (DEG/KT/KT) (MB)    (FT/S)
CHAMBERS ISLAND  1640   78     180/  5/ 10 1016.3F
S GREEN BAY BUOY 1600   75 74  190/  8/ 10   N/A
N MID LAKE BUOY  1550   70 70  210/  8/  8 1015.6F   0
NORTHPORT PIER   1600   76      70/  3/  4 1016.3S
SISTER BAY       1636   81     300/  8/  8   N/A
ALGOMA LAKESHORE 1513          180/  5/  7   N/A
KEWAUNEE LAKESHO 1600   67     170/  5/  7 1016.8R
SHEBOYGAN LAKESH 1600   76     110/  4/  4 1017.7F
PORT WASHINGTON  1600   77     180/  2/  3 1018.6S
ATWATER BUOY     1600   70 56  160/  4/  4 1020.0R
MILWAUKEE LAKESH 1610   72     130/  4/  4   N/A
S MID LAKE BUOY  1550   74 75   CALM  /  2 1017.8R   0
KENOSHA   LAKESH 1600   70      20/  4/  5 1017.9S
$$

TC  - TEMPERATURE IN CELSIUS
VSB - VISIBILITY IN STATUTE MILES
WCI - WIND CHILL INDEX
HX  - HEAT INDEX





USA.gov is the U.S. government's official web portal to all federal, state and local government web resources and services.